EW1587 Weather Reports


time (UTC)temp
F
wind
direction
speed
knots
gust
knots
rain 1hr
in
rain 24hr
in
rain mn
in
humidity
%
barometer
mb
20260508082551 41 243 1.7 3.5 0.00 0.00 0.00 53 1008.8
20260508082051 42 262 0.9 2.6 0.00 0.00 0.00 53 1008.8
20260508081610 42 248 1.7 3.5 0.00 0.00 0.00 53 1008.7
20260508081050 42 255 1.7 3.5 0.00 0.00 0.00 53 1008.8
20260508080549 42 256 1.7 2.6 0.00 0.00 0.00 53 1008.9
20260508080049 42 271 0.9 4.3 0.00 0.00 0.00 53 1008.9
20260508075548 42 260 1.7 4.3 0.00 0.00 0.00 53 1008.9
20260508075046 42 264 1.7 4.3 0.00 0.00 0.00 52 1008.9
20260508074546 42 249 1.7 4.3 0.00 0.00 0.00 52 1008.9
20260508074045 42 258 1.7 3.5 0.00 0.00 0.00 52 1008.9
20260508073545 42 250 2.6 3.5 0.00 0.00 0.00 52 1008.9
20260508073044 42 252 2.6 3.5 0.00 0.00 0.00 51 1008.9
20260508072542 42 265 1.7 3.5 0.00 0.00 0.00 51 1008.9
20260508072042 43 256 1.7 3.5 0.00 0.00 0.00 51 1008.9
20260508071545 43 261 1.7 4.3 0.00 0.00 0.00 51 1009.0
20260508071040 43 264 1.7 4.3 0.00 0.00 0.00 51 1009.0
20260508070539 43 269 0.9 2.6 0.00 0.00 0.00 50 1009.0
20260508070039 43 257 0.9 2.6 0.00 0.00 0.00 50 1009.1
20260508065538 43 256 0.9 3.5 0.00 0.00 0.00 50 1009.1
20260508065035 43 246 0.9 3.5 0.00 0.00 0.00 49 1009.1
20260508064535 43 259 0.0 2.6 0.00 0.00 0.00 49 1009.1
20260508064033 44 256 0.0 2.6 0.00 0.00 0.00 49 1009.2
20260508063534 44 267 0.0 2.6 0.00 0.00 0.00 48 1009.2
20260508063045 44 260 0.9 2.6 0.00 0.00 0.00 48 1009.2
20260508062532 44 269 0.9 1.7 0.00 0.00 0.00 47 1009.2
20260508062029 44 255 0.9 1.7 0.00 0.00 0.00 47 1009.2
20260508061530 44 255 0.9 1.7 0.00 0.00 0.00 47 1009.3
20260508061028 44 257 0.9 1.7 0.00 0.00 0.00 47 1009.4
20260508060527 44 263 0.0 1.7 0.00 0.00 0.00 47 1009.4
20260508060034 44 262 0.0 2.6 0.00 0.00 0.00 47 1009.4
20260508055526 44 255 1.7 2.6 0.00 0.00 0.00 47 1009.5
20260508055025 44 248 0.9 1.7 0.00 0.00 0.00 47 1009.5
20260508054525 44 255 0.0 0.9 0.00 0.00 0.00 46 1009.5
20260508054023 45 267 0.0 0.9 0.00 0.00 0.00 46 1009.5
20260508053523 45 257 0.0 0.9 0.00 0.00 0.00 46 1009.6
20260508053024 45 256 0.0 0.9 0.00 0.00 0.00 46 1009.6
20260508052524 45 255 0.0 0.9 0.00 0.00 0.00 45 1009.7
20260508052020 45 255 0.0 0.9 0.00 0.00 0.00 45 1009.7
20260508051522 45 257 0.0 0.9 0.00 0.00 0.00 45 1009.7
20260508051020 45 254 0.0 0.9 0.00 0.00 0.00 45 1009.7
20260508050518 45 267 0.0 0.0 0.00 0.00 0.00 45 1009.8
20260508050021 45 269 0.0 0.9 0.00 0.00 0.00 45 1009.8
20260508045517 45 269 0.0 0.9 0.00 0.00 0.00 45 1009.8
20260508045018 45 265 0.0 0.9 0.00 0.00 0.00 45 1009.9
20260508044620 46 267 0.0 0.9 0.00 0.00 0.00 44 1009.9
20260508044017 46 262 0.0 0.9 0.00 0.00 0.00 44 1010.0
20260508043517 46 262 0.0 1.7 0.00 0.00 0.00 44 1010.0
20260508043020 46 266 0.9 1.7 0.00 0.00 0.00 44 1010.1
20260508042519 46 262 0.0 0.9 0.00 0.00 0.00 44 1010.0
20260508042016 46 253 0.0 0.9 0.00 0.00 0.00 43 1010.1
20260508041517 46 250 0.0 1.7 0.00 0.00 0.00 43 1010.1
20260508041016 46 255 0.9 1.7 0.00 0.00 0.00 43 1010.1
20260508040515 46 249 0.0 1.7 0.00 0.00 0.00 43 1010.1
20260508040116 46 255 0.0 0.9 0.00 0.00 0.00 42 1010.1
20260508035515 47 262 0.0 0.9 0.00 0.00 0.00 42 1010.2
20260508035015 47 253 0.0 0.9 0.00 0.00 0.00 42 1010.2
20260508034515 47 252 0.0 0.9 0.00 0.00 0.00 42 1010.3
20260508034015 47 250 0.0 0.9 0.00 0.00 0.00 42 1010.3
20260508033514 47 245 0.0 0.9 0.00 0.00 0.00 41 1010.3
20260508033017 47 253 0.0 0.9 0.00 0.00 0.00 41 1010.3
20260508032518 47 256 0.0 0.0 0.00 0.00 0.00 40 1010.4
20260508032013 48 256 0.0 0.0 0.00 0.00 0.00 40 1010.3
20260508031514 48 256 0.0 0.0 0.00 0.00 0.00 40 1010.4
20260508031014 48 255 0.0 0.0 0.00 0.00 0.00 39 1010.4
20260508030514 48 256 0.0 0.9 0.00 0.00 0.00 39 1010.4
20260508030014 48 256 0.0 0.9 0.00 0.00 0.00 39 1010.4
20260508025517 48 255 0.0 0.9 0.00 0.00 0.00 39 1010.4
20260508025013 48 257 0.0 0.9 0.00 0.00 0.00 39 1010.4
20260508024530 49 259 0.0 0.9 0.00 0.00 0.00 40 1010.4
20260508024016 49 262 0.0 0.9 0.00 0.00 0.00 40 1010.3
20260508023512 49 263 0.0 0.9 0.00 0.00 0.00 40 1010.4
20260508023022 49 264 0.0 0.9 0.00 0.00 0.00 41 1010.4
20260508022512 49 273 0.0 0.0 0.00 0.00 0.00 42 1010.4
20260508022012 50 273 0.0 0.9 0.00 0.00 0.00 44 1010.3
20260508021513 50 273 0.0 0.9 0.00 0.00 0.00 44 1010.2
20260508021013 50 277 0.0 0.9 0.00 0.00 0.00 44 1010.2
20260508020511 50 274 0.0 0.9 0.00 0.00 0.00 43 1010.2
20260508020011 51 274 0.0 0.9 0.00 0.00 0.00 43 1010.2
20260508015511 51 274 0.0 0.9 0.00 0.00 0.00 42 1010.1
20260508015011 52 246 0.0 0.9 0.00 0.00 0.00 40 1010.1
20260508014511 52 281 0.0 1.7 0.00 0.00 0.00 38 1010.1
20260508014011 53 287 0.0 1.7 0.00 0.00 0.00 36 1010.0
20260508013514 53 297 0.0 2.6 0.00 0.00 0.00 36 1010.0
20260508013010 53 283 0.9 3.5 0.00 0.00 0.00 36 1010.0
20260508012510 54 284 0.9 3.5 0.00 0.00 0.00 35 1009.9
20260508012011 54 294 0.9 3.5 0.00 0.00 0.00 35 1010.0
20260508011509 54 284 1.7 4.3 0.00 0.00 0.00 34 1009.9
20260508011009 54 277 1.7 4.3 0.00 0.00 0.00 33 1009.9
20260508010508 55 290 1.7 7.0 0.00 0.00 0.00 33 1009.9
20260508010010 55 301 2.6 7.8 0.00 0.00 0.00 32 1009.8
20260508005508 55 302 2.6 7.8 0.00 0.00 0.00 32 1009.9
20260508005010 56 288 2.6 8.7 0.00 0.00 0.00 32 1009.8
20260508004507 56 283 1.7 11.3 0.00 0.00 0.00 32 1009.8
20260508004012 56 303 4.3 11.3 0.00 0.00 0.00 32 1009.7
20260508003510 56 269 4.3 10.4 0.00 0.00 0.00 31 1009.8
20260508003006 56 307 6.1 11.3 0.00 0.00 0.00 31 1009.8
20260508002508 57 334 4.3 11.3 0.00 0.00 0.00 31 1009.8
20260508002005 57 305 5.2 9.6 0.00 0.00 0.00 31 1009.8
20260508001504 57 253 2.6 10.4 0.00 0.00 0.00 31 1009.8
20260508001004 57 294 3.5 11.3 0.00 0.00 0.00 30 1009.9
20260508000504 57 323 4.3 11.3 0.00 0.00 0.00 29 1009.9
20260508000004 57 294 5.2 11.3 0.00 0.00 0.00 30 1010.0
20260507235508 57 269 2.6 12.2 0.00 0.00 0.00 31 1010.0
20260507235003 57 316 5.2 12.2 0.00 0.00 0.00 30 1010.0
20260507234504 57 328 6.1 12.2 0.00 0.00 0.00 30 1010.0
20260507234002 57 252 1.7 7.8 0.00 0.00 0.00 29 1010.0
20260507233502 57 333 1.7 10.4 0.00 0.00 0.00 29 1010.0
20260507233002 57 315 3.5 13.9 0.00 0.00 0.00 31 1010.0
20260507232503 57 305 7.0 13.9 0.00 0.00 0.00 30 1010.1
20260507232100 58 285 6.1 11.3 0.00 0.00 0.00 29 1010.1
20260507231601 58 285 5.2 9.6 0.00 0.00 0.00 29 1010.1
20260507231059 58 281 6.1 10.4 0.00 0.00 0.00 30 1010.2
20260507230602 57 25 2.6 16.5 0.00 0.00 0.00 30 1010.3
20260507230105 57 357 9.6 16.5 0.00 0.00 0.00 30 1010.3
20260507225558 57 316 8.7 13.9 0.00 0.00 0.00 31 1010.3
20260507225057 57 287 6.1 13.0 0.00 0.00 0.00 32 1010.3
20260507224603 57 287 6.1 12.2 0.00 0.00 0.00 30 1010.4
20260507224056 57 288 6.1 9.6 0.00 0.00 0.00 30 1010.4
20260507223556 57 335 3.5 9.6 0.00 0.00 0.00 29 1010.5
20260507223055 57 284 4.3 13.0 0.00 0.00 0.00 29 1010.6
20260507222557 57 294 5.2 13.9 0.00 0.00 0.00 29 1010.5
20260507222055 57 278 8.7 13.9 0.00 0.00 0.00 29 1010.5
20260507221553 57 278 6.1 11.3 0.00 0.00 0.00 29 1010.6
20260507221054 57 339 3.5 13.9 0.00 0.00 0.00 29 1010.6
20260507220551 57 266 6.1 13.9 0.00 0.00 0.00 29 1010.8
20260507220051 56 273 5.2 13.0 0.00 0.00 0.00 30 1010.7
20260507215551 56 238 4.3 13.0 0.00 0.00 0.00 29 1010.8
20260507215050 57 288 9.6 17.4 0.00 0.00 0.00 29 1010.8
20260507214602 57 294 6.1 16.5 0.00 0.00 0.00 32 1010.7
20260507214050 56 269 5.2 8.7 0.00 0.00 0.00 29 1010.8
20260507213549 56 328 2.6 12.2 0.00 0.00 0.00 29 1010.9
20260507213048 56 295 5.2 15.6 0.00 0.00 0.00 30 1010.9
20260507212548 56 255 7.0 15.6 0.00 0.00 0.00 29 1011.0
20260507212047 56 280 5.2 9.6 0.00 0.00 0.00 30 1011.0
20260507211550 55 358 0.9 8.7 0.00 0.00 0.00 29 1011.0
20260507211046 56 278 3.5 12.2 0.00 0.00 0.00 28 1011.1
20260507210546 56 353 5.2 16.5 0.00 0.00 0.00 29 1011.2
20260507210047 55 245 9.6 16.5 0.00 0.00 0.00 32 1010.8
20260507205544 55 287 11.3 16.5 0.00 0.00 0.00 31 1011.1
20260507205043 55 269 7.0 15.6 0.00 0.00 0.00 29 1011.1
20260507204542 55 299 4.3 14.8 0.00 0.00 0.00 29 1011.3
20260507204045 55 270 9.6 14.8 0.00 0.00 0.00 30 1011.4
20260507203540 55 257 2.6 8.7 0.00 0.00 0.00 29 1011.5
20260507203054 55 271 2.6 13.9 0.00 0.00 0.00 30 1011.5
20260507202539 55 293 5.2 13.9 0.00 0.00 0.00 30 1011.7
20260507202037 55 276 2.6 9.6 0.00 0.00 0.00 29 1011.7
20260507201537 55 301 1.7 9.6 0.00 0.00 0.00 30 1011.7
20260507201036 54 93 1.7 7.8 0.00 0.00 0.00 30 1011.8
20260507200537 55 280 2.6 10.4 0.00 0.00 0.00 30 1011.9
20260507200134 55 324 2.6 10.4 0.00 0.00 0.00 29 1012.0
20260507195534 54 301 3.5 9.6 0.00 0.00 0.00 31 1012.0
20260507195036 54 326 5.2 11.3 0.00 0.00 0.00 29 1012.0
20260507194534 54 242 5.2 11.3 0.00 0.00 0.00 30 1012.1
20260507194032 54 226 0.9 7.8 0.00 0.00 0.00 31 1012.1
20260507193533 54 255 3.5 8.7 0.00 0.00 0.00 29 1012.2
20260507193030 53 256 4.3 13.0 0.00 0.00 0.00 30 1012.2
20260507192532 54 236 8.7 13.0 0.00 0.00 0.00 29 1012.2
20260507192034 54 74 0.9 13.0 0.00 0.00 0.00 30 1012.2
20260507191528 54 262 5.2 13.0 0.00 0.00 0.00 30 1012.4
20260507191027 54 285 1.7 7.8 0.00 0.00 0.00 30 1012.3
20260507190529 53 29 1.7 10.4 0.00 0.00 0.00 30 1012.4
20260507190027 53 273 3.5 12.2 0.00 0.00 0.00 32 1012.5
20260507185529 53 284 4.3 12.2 0.00 0.00 0.00 31 1012.4
20260507185024 53 277 2.6 10.4 0.00 0.00 0.00 32 1012.4
20260507184523 52 283 4.3 10.4 0.00 0.00 0.00 30 1012.4
20260507184023 52 34 1.7 7.8 0.00 0.00 0.00 32 1012.5
20260507183522 52 305 1.7 9.6 0.00 0.00 0.00 30 1012.6
20260507183021 52 323 5.2 13.0 0.00 0.00 0.00 30 1012.7
20260507182521 52 283 8.7 13.0 0.00 0.00 0.00 30 1012.7
20260507182020 52 293 0.0 9.6 0.00 0.00 0.00 32 1012.7
20260507181524 51 58 3.5 9.6 0.00 0.00 0.00 32 1012.8
20260507181019 51 295 5.2 11.3 0.00 0.00 0.00 30 1012.8
20260507180517 51 329 3.5 14.8 0.00 0.00 0.00 32 1012.9
20260507180023 51 299 7.0 14.8 0.00 0.00 0.00 31 1012.8
20260507175517 51 311 6.1 12.2 0.00 0.00 0.00 31 1012.9
20260507175116 51 263 7.0 10.4 0.00 0.00 0.00 31 1012.8
20260507174515 50 273 6.1 11.3 0.00 0.00 0.00 32 1013.0
20260507174014 50 276 6.1 10.4 0.00 0.00 0.00 33 1013.1
20260507173514 50 320 3.5 11.3 0.00 0.00 0.00 32 1013.2
20260507173027 50 312 2.6 11.3 0.00 0.00 0.00 32 1013.3
20260507172513 50 311 3.5 10.4 0.00 0.00 0.00 33 1013.3
20260507172011 50 300 3.5 13.0 0.00 0.00 0.00 32 1013.2
20260507171511 50 278 7.0 13.0 0.00 0.00 0.00 32 1013.3
20260507171012 50 288 4.3 7.0 0.00 0.00 0.00 32 1013.4
20260507170510 50 281 0.9 4.3 0.00 0.00 0.00 34 1013.4
20260507170008 49 118 0.9 7.0 0.00 0.00 0.00 33 1013.4
20260507165510 49 280 4.3 11.3 0.00 0.00 0.00 32 1013.5
20260507165010 49 314 5.2 12.2 0.00 0.00 0.00 33 1013.5
20260507164508 49 290 6.1 13.9 0.00 0.00 0.00 33 1013.5
20260507164007 49 278 7.0 13.9 0.00 0.00 0.00 33 1013.5
20260507163506 49 292 1.7 7.0 0.00 0.00 0.00 34 1013.7
20260507163010 49 307 2.6 7.0 0.00 0.00 0.00 33 1013.8
20260507162504 49 276 1.7 7.8 0.00 0.00 0.00 35 1013.8
20260507162004 49 316 4.3 7.8 0.00 0.00 0.00 34 1013.9
20260507161503 48 316 0.0 7.8 0.00 0.00 0.00 36 1013.9
20260507161002 48 79 4.3 7.8 0.00 0.00 0.00 34 1013.9
20260507160501 48 20 0.0 4.3 0.00 0.00 0.00 40 1013.9
20260507160100 48 323 1.7 5.2 0.00 0.00 0.00 38 1014.0
20260507155559 47 316 2.6 5.2 0.00 0.00 0.00 38 1013.9
20260507155106 47 292 0.0 7.8 0.00 0.00 0.00 39 1014.0
20260507154600 47 293 3.5 7.8 0.00 0.00 0.00 37 1014.0
20260507154059 47 281 0.9 4.3 0.00 0.00 0.00 43 1014.0
20260507153556 47 278 0.9 6.1 0.00 0.00 0.00 42 1014.1
20260507153056 46 200 2.6 7.8 0.00 0.00 0.00 43 1014.0
20260507152555 46 297 4.3 7.8 0.00 0.00 0.00 43 1014.1
20260507152053 45 167 0.0 8.7 0.00 0.00 0.00 42 1014.1
20260507151553 45 259 3.5 8.7 0.00 0.00 0.00 43 1014.1
20260507151051 46 288 3.5 7.0 0.00 0.00 0.00 44 1014.0
20260507150552 46 276 3.5 5.2 0.00 0.00 0.00 44 1014.1
20260507150049 45 315 0.0 7.0 0.00 0.00 0.00 47 1014.1
20260507145548 45 287 2.6 6.1 0.00 0.00 0.00 46 1014.1
20260507145049 45 274 2.6 6.1 0.00 0.00 0.00 47 1014.2
20260507144547 44 280 1.7 6.1 0.00 0.00 0.00 46 1014.2
20260507144048 44 297 1.7 6.1 0.00 0.00 0.00 47 1014.2
20260507143550 44 274 1.7 5.2 0.00 0.00 0.00 48 1014.2
20260507143045 44 290 1.7 4.3 0.00 0.00 0.00 49 1014.2
20260507142544 44 288 0.9 4.3 0.00 0.00 0.00 49 1014.3
20260507142043 44 293 1.7 4.3 0.00 0.00 0.00 51 1014.3
20260507141548 44 297 0.9 5.2 0.00 0.00 0.00 51 1014.3
20260507141042 44 316 1.7 5.2 0.00 0.00 0.00 51 1014.3
20260507140543 44 302 0.0 2.6 0.00 0.00 0.00 55 1014.3
20260507140043 43 316 0.0 2.6 0.00 0.00 0.00 56 1014.3
20260507135538 43 246 0.9 2.6 0.00 0.00 0.00 59 1014.3
20260507135037 43 283 0.0 3.5 0.00 0.00 0.00 62 1014.3
20260507134539 42 228 0.9 4.3 0.00 0.00 0.00 63 1014.4
20260507134035 42 253 1.7 4.3 0.00 0.00 0.00 65 1014.4
20260507133533 41 274 1.7 3.5 0.00 0.00 0.00 65 1014.4
20260507133035 41 269 1.7 3.5 0.00 0.00 0.00 67 1014.4
20260507132533 41 253 0.0 1.7 0.00 0.00 0.00 69 1014.5
20260507132028 40 293 0.0 1.7 0.00 0.00 0.00 71 1014.5
20260507131533 40 284 0.9 2.6 0.00 0.00 0.00 73 1014.5
20260507131028 39 271 0.0 3.5 0.00 0.00 0.00 73 1014.6
20260507130528 39 302 1.7 3.5 0.00 0.00 0.00 74 1014.5
20260507130024 39 275 0.0 0.9 0.00 0.00 0.00 78 1014.5
20260507125523 38 281 0.0 1.7 0.00 0.00 0.00 79 1014.5
20260507125022 37 276 0.0 1.7 0.00 0.00 0.00 79 1014.6
20260507124529 37 283 0.9 1.7 0.00 0.00 0.00 80 1014.6
20260507124019 36 290 0.0 1.7 0.00 0.00 0.00 82 1014.7
20260507123519 36 287 0.9 2.6 0.00 0.00 0.00 82 1014.6
20260507123017 35 284 0.9 2.6 0.00 0.00 0.00 82 1014.7
20260507122521 35 285 0.0 1.7 0.00 0.00 0.00 83 1014.7
20260507122019 35 288 0.0 1.7 0.00 0.00 0.00 84 1014.7
20260507121518 34 290 0.0 0.9 0.00 0.00 0.00 84 1014.6
20260507121018 34 291 0.0 0.9 0.00 0.00 0.00 85 1014.6
20260507120517 33 290 0.0 0.9 0.00 0.00 0.00 87 1014.5
20260507120018 33 293 0.0 0.9 0.00 0.00 0.00 89 1014.6
20260507115517 32 293 0.0 0.0 0.00 0.00 0.00 90 1014.5
20260507115016 31 293 0.0 0.9 0.00 0.00 0.00 91 1014.5
20260507114516 30 293 0.0 0.9 0.00 0.00 0.00 91 1014.6
20260507114016 29 293 0.0 0.0 0.00 0.00 0.00 90 1014.6
20260507113520 29 292 0.0 0.0 0.00 0.00 0.00 90 1014.6
20260507113016 29 293 0.0 0.0 0.00 0.00 0.00 90 1014.6
20260507112520 29 293 0.0 0.9 0.00 0.00 0.00 91 1014.6
20260507112015 29 293 0.0 0.9 0.00 0.00 0.00 91 1014.6
20260507111514 28 293 0.0 0.9 0.00 0.00 0.00 90 1014.5
20260507111018 28 293 0.0 0.9 0.00 0.00 0.00 89 1014.5
20260507110513 28 292 0.0 0.9 0.00 0.00 0.00 89 1014.6
20260507110113 28 284 0.0 0.0 0.00 0.00 0.00 88 1014.6
20260507105511 28 277 0.0 0.0 0.00 0.00 0.00 88 1014.6
20260507105013 28 277 0.0 0.0 0.00 0.00 0.00 86 1014.5
20260507104534 28 277 0.0 0.0 0.00 0.00 0.00 86 1014.5
20260507104009 29 277 0.0 0.0 0.00 0.00 0.00 86 1014.5
20260507103508 29 277 0.0 0.0 0.00 0.00 0.00 86 1014.6
20260507103009 29 277 0.0 0.0 0.00 0.00 0.00 86 1014.7
20260507102506 29 277 0.0 0.0 0.00 0.00 0.00 85 1014.7
20260507102007 29 266 0.0 0.0 0.00 0.00 0.00 83 1014.6
20260507101512 29 266 0.0 0.0 0.00 0.00 0.00 83 1014.6
20260507101008 29 266 0.0 0.0 0.00 0.00 0.00 82 1014.6
20260507100503 30 266 0.0 0.0 0.00 0.00 0.00 82 1014.6
20260507100006 30 266 0.0 0.0 0.00 0.00 0.00 82 1014.6
20260507095503 29 265 0.0 0.9 0.00 0.00 0.00 82 1014.7
20260507095003 30 257 0.0 0.9 0.00 0.00 0.00 82 1014.7
20260507094502 30 253 0.0 0.9 0.00 0.00 0.00 81 1014.7
20260507094001 30 259 0.0 0.9 0.00 0.00 0.00 81 1014.7
20260507093503 30 257 0.0 0.9 0.00 0.00 0.00 81 1014.8
20260507093100 30 249 0.0 0.9 0.00 0.00 0.00 81 1014.8
20260507092600 30 242 0.0 0.9 0.00 0.00 0.00 81 1014.7
20260507092102 30 242 0.9 0.9 0.00 0.00 0.00 81 1014.7
20260507091558 31 242 0.0 0.9 0.00 0.00 0.00 82 1014.8
20260507091056 31 249 0.0 0.9 0.00 0.00 0.00 83 1014.8
20260507090554 31 265 0.0 0.9 0.00 0.00 0.00 83 1014.8
20260507090059 32 267 0.0 1.7 0.00 0.00 0.00 82 1014.8
20260507085553 32 280 0.0 1.7 0.00 0.00 0.00 82 1014.9
20260507085053 32 276 0.0 1.7 0.00 0.00 0.00 82 1014.9
20260507084559 32 277 0.0 1.7 0.00 0.00 0.00 82 1014.9
20260507084054 32 278 0.0 1.7 0.00 0.00 0.00 81 1014.9
20260507083552 32 277 0.0 1.7 0.00 0.00 0.00 81 1014.9
20260507083052 32 285 0.9 1.7 0.00 0.00 0.00 80 1014.9